"Period start","avg(HW err(1)/warn(2) (#))","avg(Visibility (m))","avg(Weather code (#))","avg(Precip intensity (mm/h))","min(HW err(1)/warn(2) (#))","max(HW err(1)/warn(2) (#))","std(HW err(1)/warn(2) (#))","med(HW err(1)/warn(2) (#))","min(Visibility (m))","max(Visibility (m))","std(Visibility (m))","med(Visibility (m))","min(Weather code (#))","max(Weather code (#))","std(Weather code (#))","med(Weather code (#))","min(Precip intensity (mm/h))","max(Precip intensity (mm/h))","std(Precip intensity (mm/h))","med(Precip intensity (mm/h))"
2017-07-06 00:00:00,2,45666,0,0.00,2,2,0,2,27908,50000,6952,50000,0,0,0,0,0.00,0.00,0.00,0.00
2017-07-06 00:10:00,2,44758,0,0.00,2,2,0,2,33824,50000,6475,49120,0,0,0,0,0.00,0.00,0.00,0.00
2017-07-06 00:20:00,2,49275,0,0.00,2,2,0,2,45793,50000,1300,49997,0,0,0,0,0.00,0.00,0.00,0.00
2017-07-06 00:30:00,2,37063,0,0.00,2,2,0,2,14041,50000,11415,39790,0,0,0,0,0.00,0.00,0.00,0.00
2017-07-06 00:40:00,2,43380,0,0.00,2,2,0,2,22967,50000,9007,47354,0,0,0,0,0.00,0.00,0.00,0.00
2017-07-06 00:50:00,2,45498,0,0.00,2,2,0,2,27110,50000,7104,49692,0,0,0,0,0.00,0.00,0.00,0.00
2017-07-06 01:00:00,2,43222,0,0.00,2,2,0,2,22927,50000,8802,46888,0,0,0,0,0.00,0.00,0.00,0.00
2017-07-06 01:10:00,2,48969,0,0.00,2,2,0,2,43688,50000,1941,50000,0,0,0,0,0.00,0.00,0.00,0.00
2017-07-06 01:20:00,2,50000,0,0.00,2,2,0,2,50000,50000,0,50000,0,0,0,0,0.00,0.00,0.00,0.00
2017-07-06 01:30:00,2,49746,0,0.00,2,2,0,2,47553,50000,732,50000,0,0,0,0,0.00,0.00,0.00,0.00
2017-07-06 01:40:00,2,49715,0,0.00,2,2,0,2,47643,50000,702,50000,0,0,0,0,0.00,0.00,0.00,0.00
2017-07-06 01:50:00,2,48554,0,0.00,2,2,0,2,42001,50000,2783,50000,0,0,0,0,0.00,0.00,0.00,0.00
2017-07-06 02:00:00,2,44347,0,0.00,2,2,0,2,32895,48246,4698,46942,0,0,0,0,0.00,0.00,0.00,0.00
2017-07-06 02:10:00,2,46847,0,0.00,2,2,0,2,40823,50000,3545,48928,0,0,0,0,0.00,0.00,0.00,0.00
2017-07-06 02:20:00,2,49630,0,0.00,2,2,0,2,47807,50000,756,50000,0,0,0,0,0.00,0.00,0.00,0.00
2017-07-06 02:30:00,2,50000,0,0.00,2,2,0,2,50000,50000,0,50000,0,0,0,0,0.00,0.00,0.00,0.00
2017-07-06 02:40:00,2,49479,0,0.00,2,2,0,2,47094,50000,1050,50000,0,0,0,0,0.00,0.00,0.00,0.00
2017-07-06 02:50:00,2,49186,0,0.00,2,2,0,2,44661,50000,1725,50000,0,0,0,0,0.00,0.00,0.00,0.00
2017-07-06 03:00:00,2,47254,0,0.00,2,2,0,2,43031,50000,2447,47648,0,0,0,0,0.00,0.00,0.00,0.00
2017-07-06 03:10:00,2,45595,0,0.00,2,2,0,2,35905,50000,4506,45486,0,0,0,0,0.00,0.00,0.00,0.00
2017-07-06 03:20:00,2,49630,0,0.00,2,2,0,2,46413,50000,1073,50000,0,0,0,0,0.00,0.00,0.00,0.00
2017-07-06 03:30:00,2,46506,0,0.00,2,2,0,2,37295,50000,3756,47302,0,0,0,0,0.00,0.00,0.00,0.00
2017-07-06 03:40:00,2,49167,0,0.00,2,2,0,2,42273,50000,2305,50000,0,0,0,0,0.00,0.00,0.00,0.00
2017-07-06 03:50:00,2,47844,0,0.00,2,2,0,2,41963,50000,2652,49447,0,0,0,0,0.00,0.00,0.00,0.00
2017-07-06 04:00:00,2,49115,0,0.00,2,2,0,2,44534,50000,1830,50000,0,0,0,0,0.00,0.00,0.00,0.00
2017-07-06 04:10:00,2,49767,0,0.00,2,2,0,2,47671,50000,699,50000,0,0,0,0,0.00,0.00,0.00,0.00
2017-07-06 04:20:00,2,49287,0,0.00,2,2,0,2,44393,50000,1661,50000,0,0,0,0,0.00,0.00,0.00,0.00
2017-07-06 04:30:00,2,49814,0,0.00,2,2,0,2,48144,50000,557,50000,0,0,0,0,0.00,0.00,0.00,0.00
2017-07-06 04:40:00,2,46132,0,0.00,2,2,0,2,37511,50000,4568,47509,0,0,0,0,0.00,0.00,0.00,0.00
2017-07-06 04:50:00,2,47931,0,0.00,2,2,0,2,39945,50000,3453,50000,0,0,0,0,0.00,0.00,0.00,0.00
2017-07-06 05:00:00,2,47306,0,0.00,2,2,0,2,39172,50000,4073,50000,0,0,0,0,0.00,0.00,0.00,0.00
2017-07-06 05:10:00,2,49150,0,0.00,2,2,0,2,45081,50000,1531,50000,0,0,0,0,0.00,0.00,0.00,0.00
2017-07-06 05:20:00,2,48680,0,0.00,2,2,0,2,45580,50000,1752,49779,0,0,0,0,0.00,0.00,0.00,0.00
2017-07-06 05:30:00,2,31780,23,0.14,2,2,0,2,7360,50000,15681,34730,0,52,24,20,0.00,0.70,0.23,0.03
2017-07-06 05:40:00,2,31561,0,0.00,2,2,0,2,19538,46647,8440,30536,0,0,0,0,0.00,0.00,0.00,0.00
2017-07-06 05:50:00,2,38565,0,0.00,2,2,0,2,14385,50000,12767,44414,0,0,0,0,0.00,0.00,0.00,0.00
2017-07-06 06:00:00,2,18546,35,0.22,2,2,0,2,10785,42929,9178,15258,0,61,28,51,0.00,0.90,0.31,0.08
2017-07-06 06:10:00,2,46681,10,0.01,2,2,0,2,30416,50000,6550,50000,0,51,20,0,0.00,0.05,0.02,0.00
2017-07-06 06:20:00,2,44804,0,0.00,2,2,0,2,24682,50000,9108,50000,0,0,0,0,0.00,0.00,0.00,0.00
2017-07-06 06:30:00,2,46773,0,0.00,2,2,0,2,38168,50000,4215,49802,0,0,0,0,0.00,0.00,0.00,0.00
2017-07-06 06:40:00,2,46143,0,0.00,2,2,0,2,40594,50000,2956,46484,0,0,0,0,0.00,0.00,0.00,0.00
2017-07-06 06:50:00,2,48322,0,0.00,2,2,0,2,41783,50000,2835,50000,0,0,0,0,0.00,0.00,0.00,0.00
2017-07-06 07:00:00,2,49272,0,0.00,2,2,0,2,45403,50000,1377,49992,0,0,0,0,0.00,0.00,0.00,0.00
2017-07-06 07:10:00,2,46776,0,0.00,2,2,0,2,40459,50000,3046,47177,0,0,0,0,0.00,0.00,0.00,0.00
2017-07-06 07:20:00,2,48128,0,0.00,2,2,0,2,41876,50000,3118,50000,0,0,0,0,0.00,0.00,0.00,0.00
2017-07-06 07:30:00,2,49569,0,0.00,2,2,0,2,46874,50000,965,50000,0,0,0,0,0.00,0.00,0.00,0.00
2017-07-06 07:40:00,2,47565,0,0.00,2,2,0,2,35955,50000,4190,49582,0,0,0,0,0.00,0.00,0.00,0.00
2017-07-06 07:50:00,2,49540,0,0.00,2,2,0,2,46596,50000,1044,50000,0,0,0,0,0.00,0.00,0.00,0.00
2017-07-06 08:00:00,2,49329,0,0.00,2,2,0,2,46129,50000,1362,50000,0,0,0,0,0.00,0.00,0.00,0.00
2017-07-06 08:10:00,2,48202,0,0.00,2,2,0,2,43661,50000,2220,49196,0,0,0,0,0.00,0.00,0.00,0.00
2017-07-06 08:20:00,2,49474,0,0.00,2,2,0,2,47290,50000,876,50000,0,0,0,0,0.00,0.00,0.00,0.00
2017-07-06 08:30:00,2,48006,0,0.00,2,2,0,2,43329,50000,2495,49274,0,0,0,0,0.00,0.00,0.00,0.00
2017-07-06 08:40:00,2,34324,12,0.03,2,2,0,2,11424,50000,12397,35819,0,61,24,0,0.00,0.15,0.05,0.00
2017-07-06 08:50:00,2,36197,15,0.02,2,2,0,2,13790,50000,12832,38674,0,51,23,0,0.00,0.10,0.03,0.00
2017-07-06 09:00:00,1,38829,12,0.04,0,2,1,2,25999,50000,9451,40198,0,61,24,0,0.00,0.35,0.11,0.00
2017-07-06 09:10:00,2,44142,26,0.04,0,2,1,2,28640,50000,7313,47379,0,51,26,26,0.00,0.25,0.08,0.00
2017-07-06 09:20:00,1,49758,0,0.00,0,2,1,2,47585,50000,724,50000,0,0,0,0,0.00,0.00,0.00,0.00
2017-07-06 09:30:00,2,49987,0,0.00,0,2,1,2,49866,50000,40,50000,0,0,0,0,0.00,0.00,0.00,0.00
2017-07-06 09:40:00,2,49463,0,0.00,0,2,1,2,45534,50000,1337,50000,0,0,0,0,0.00,0.00,0.00,0.00
2017-07-06 09:50:00,2,50000,0,0.00,2,2,0,2,50000,50000,0,50000,0,0,0,0,0.00,0.00,0.00,0.00
2017-07-06 10:00:00,2,50000,0,0.00,0,2,1,2,50000,50000,0,50000,0,0,0,0,0.00,0.00,0.00,0.00
2017-07-06 10:10:00,2,49563,0,0.00,2,2,0,2,45634,50000,1310,50000,0,0,0,0,0.00,0.00,0.00,0.00
2017-07-06 10:20:00,2,49758,0,0.00,0,2,1,2,47944,50000,614,50000,0,0,0,0,0.00,0.00,0.00,0.00
2017-07-06 10:30:00,2,49519,0,0.00,2,2,0,2,46569,50000,1042,50000,0,0,0,0,0.00,0.00,0.00,0.00
2017-07-06 10:40:00,0,50000,0,0.00,0,0,0,0,50000,50000,0,50000,0,0,0,0,0.00,0.00,0.00,0.00
2017-07-06 10:50:00,0,50000,0,0.00,0,2,1,0,50000,50000,0,50000,0,0,0,0,0.00,0.00,0.00,0.00
2017-07-06 11:00:00,1,49932,0,0.00,0,2,1,0,49320,50000,204,50000,0,0,0,0,0.00,0.00,0.00,0.00
2017-07-06 11:10:00,1,50000,0,0.00,0,2,1,2,50000,50000,0,50000,0,0,0,0,0.00,0.00,0.00,0.00
2017-07-06 11:20:00,2,47072,0,0.00,2,2,0,2,39537,50000,4176,50000,0,0,0,0,0.00,0.00,0.00,0.00
2017-07-06 11:30:00,0,49080,0,0.00,0,0,0,0,42342,50000,2292,50000,0,0,0,0,0.00,0.00,0.00,0.00
2017-07-06 11:40:00,0,50000,0,0.00,0,0,0,0,50000,50000,0,50000,0,0,0,0,0.00,0.00,0.00,0.00
2017-07-06 11:50:00,0,49862,0,0.00,0,2,1,0,48624,50000,413,50000,0,0,0,0,0.00,0.00,0.00,0.00
2017-07-06 12:00:00,0,50000,0,0.00,0,0,0,0,50000,50000,0,50000,0,0,0,0,0.00,0.00,0.00,0.00
2017-07-06 12:10:00,2,50000,0,0.00,0,2,1,2,50000,50000,0,50000,0,0,0,0,0.00,0.00,0.00,0.00
2017-07-06 12:20:00,0,50000,0,0.00,0,2,1,0,50000,50000,0,50000,0,0,0,0,0.00,0.00,0.00,0.00
2017-07-06 12:30:00,2,50000,0,0.00,2,2,0,2,50000,50000,0,50000,0,0,0,0,0.00,0.00,0.00,0.00
2017-07-06 12:40:00,2,50000,0,0.00,2,2,0,2,50000,50000,0,50000,0,0,0,0,0.00,0.00,0.00,0.00
2017-07-06 12:50:00,2,50000,0,0.00,2,2,0,2,50000,50000,0,50000,0,0,0,0,0.00,0.00,0.00,0.00
2017-07-06 13:00:00,2,50000,0,0.00,2,2,0,2,50000,50000,0,50000,0,0,0,0,0.00,0.00,0.00,0.00
2017-07-06 13:10:00,2,49952,0,0.00,2,2,0,2,49520,50000,144,50000,0,0,0,0,0.00,0.00,0.00,0.00
2017-07-06 13:20:00,2,50000,0,0.00,2,2,0,2,50000,50000,0,50000,0,0,0,0,0.00,0.00,0.00,0.00
2017-07-06 13:30:00,2,48882,0,0.00,2,2,0,2,41317,50000,2617,50000,0,0,0,0,0.00,0.00,0.00,0.00
2017-07-06 13:40:00,2,49423,0,0.00,2,2,0,2,45419,50000,1381,50000,0,0,0,0,0.00,0.00,0.00,0.00
2017-07-06 13:50:00,2,50000,0,0.00,2,2,0,2,50000,50000,0,50000,0,0,0,0,0.00,0.00,0.00,0.00
2017-07-06 14:00:00,2,50000,0,0.00,2,2,0,2,50000,50000,0,50000,0,0,0,0,0.00,0.00,0.00,0.00
2017-07-06 14:10:00,2,50000,0,0.00,2,2,0,2,50000,50000,0,50000,0,0,0,0,0.00,0.00,0.00,0.00
2017-07-06 14:20:00,2,50000,0,0.00,2,2,0,2,50000,50000,0,50000,0,0,0,0,0.00,0.00,0.00,0.00
2017-07-06 14:30:00,2,50000,0,0.00,2,2,0,2,50000,50000,0,50000,0,0,0,0,0.00,0.00,0.00,0.00
2017-07-06 14:40:00,2,50000,0,0.00,2,2,0,2,50000,50000,0,50000,0,0,0,0,0.00,0.00,0.00,0.00
2017-07-06 14:50:00,2,50000,0,0.00,2,2,0,2,50000,50000,0,50000,0,0,0,0,0.00,0.00,0.00,0.00
2017-07-06 15:00:00,2,50000,0,0.00,2,2,0,2,50000,50000,0,50000,0,0,0,0,0.00,0.00,0.00,0.00
2017-07-06 15:10:00,2,50000,0,0.00,2,2,0,2,50000,50000,0,50000,0,0,0,0,0.00,0.00,0.00,0.00
2017-07-06 15:20:00,2,50000,0,0.00,2,2,0,2,50000,50000,0,50000,0,0,0,0,0.00,0.00,0.00,0.00
2017-07-06 15:30:00,2,50000,0,0.00,2,2,0,2,50000,50000,0,50000,0,0,0,0,0.00,0.00,0.00,0.00
2017-07-06 15:40:00,2,50000,0,0.00,2,2,0,2,50000,50000,0,50000,0,0,0,0,0.00,0.00,0.00,0.00
2017-07-06 15:50:00,2,50000,0,0.00,2,2,0,2,50000,50000,0,50000,0,0,0,0,0.00,0.00,0.00,0.00
2017-07-06 16:00:00,2,49726,0,0.00,2,2,0,2,47262,50000,821,50000,0,0,0,0,0.00,0.00,0.00,0.00
2017-07-06 16:10:00,2,50000,0,0.00,2,2,0,2,50000,50000,0,50000,0,0,0,0,0.00,0.00,0.00,0.00
2017-07-06 16:20:00,2,49890,0,0.00,2,2,0,2,49343,50000,225,50000,0,0,0,0,0.00,0.00,0.00,0.00
2017-07-06 16:30:00,2,50000,0,0.00,2,2,0,2,50000,50000,0,50000,0,0,0,0,0.00,0.00,0.00,0.00
2017-07-06 16:40:00,2,49787,0,0.00,2,2,0,2,47874,50000,638,50000,0,0,0,0,0.00,0.00,0.00,0.00
2017-07-06 16:50:00,2,50000,0,0.00,2,2,0,2,50000,50000,0,50000,0,0,0,0,0.00,0.00,0.00,0.00
2017-07-06 17:00:00,2,50000,0,0.00,2,2,0,2,50000,50000,0,50000,0,0,0,0,0.00,0.00,0.00,0.00
2017-07-06 17:10:00,2,50000,0,0.00,2,2,0,2,50000,50000,0,50000,0,0,0,0,0.00,0.00,0.00,0.00
2017-07-06 17:20:00,2,50000,0,0.00,2,2,0,2,50000,50000,0,50000,0,0,0,0,0.00,0.00,0.00,0.00
2017-07-06 17:30:00,2,50000,0,0.00,2,2,0,2,50000,50000,0,50000,0,0,0,0,0.00,0.00,0.00,0.00
2017-07-06 17:40:00,2,50000,0,0.00,2,2,0,2,50000,50000,0,50000,0,0,0,0,0.00,0.00,0.00,0.00
2017-07-06 17:50:00,2,50000,0,0.00,2,2,0,2,50000,50000,0,50000,0,0,0,0,0.00,0.00,0.00,0.00
2017-07-06 18:00:00,2,49736,0,0.00,2,2,0,2,47363,50000,791,50000,0,0,0,0,0.00,0.00,0.00,0.00
2017-07-06 18:10:00,2,49994,0,0.00,2,2,0,2,49939,50000,18,50000,0,0,0,0,0.00,0.00,0.00,0.00
2017-07-06 18:20:00,2,50000,0,0.00,2,2,0,2,50000,50000,0,50000,0,0,0,0,0.00,0.00,0.00,0.00
2017-07-06 18:30:00,2,50000,0,0.00,2,2,0,2,50000,50000,0,50000,0,0,0,0,0.00,0.00,0.00,0.00
2017-07-06 18:40:00,2,49888,0,0.00,2,2,0,2,49326,50000,229,50000,0,0,0,0,0.00,0.00,0.00,0.00
2017-07-06 18:50:00,2,50000,0,0.00,2,2,0,2,50000,50000,0,50000,0,0,0,0,0.00,0.00,0.00,0.00
2017-07-06 19:00:00,2,49510,0,0.00,2,2,0,2,46369,50000,1101,50000,0,0,0,0,0.00,0.00,0.00,0.00
2017-07-06 19:10:00,2,50000,0,0.00,2,2,0,2,50000,50000,0,50000,0,0,0,0,0.00,0.00,0.00,0.00
2017-07-06 19:20:00,2,50000,0,0.00,2,2,0,2,50000,50000,0,50000,0,0,0,0,0.00,0.00,0.00,0.00
2017-07-06 19:30:00,2,50000,0,0.00,2,2,0,2,50000,50000,0,50000,0,0,0,0,0.00,0.00,0.00,0.00
2017-07-06 19:40:00,2,49874,0,0.00,2,2,0,2,48921,50000,322,50000,0,0,0,0,0.00,0.00,0.00,0.00
2017-07-06 19:50:00,2,50000,0,0.00,2,2,0,2,50000,50000,0,50000,0,0,0,0,0.00,0.00,0.00,0.00
2017-07-06 20:00:00,2,46871,0,0.00,2,2,0,2,26124,50000,7260,50000,0,0,0,0,0.00,0.00,0.00,0.00
2017-07-06 20:10:00,2,48368,0,0.00,2,2,0,2,36427,50000,4064,50000,0,0,0,0,0.00,0.00,0.00,0.00
2017-07-06 20:20:00,2,49556,0,0.00,2,2,0,2,47936,50000,668,50000,0,0,0,0,0.00,0.00,0.00,0.00
2017-07-06 20:30:00,2,48860,0,0.00,2,2,0,2,45662,50000,1758,50000,0,0,0,0,0.00,0.00,0.00,0.00
2017-07-06 20:40:00,2,29665,34,0.16,2,2,0,2,17532,40489,7161,28128,0,51,22,46,0.00,0.45,0.15,0.12
2017-07-06 20:50:00,2,41211,51,0.22,2,2,0,2,27939,48474,5867,42901,51,51,0,51,0.00,0.70,0.21,0.15
2017-07-06 21:00:00,2,33885,51,0.13,2,2,0,2,23560,44408,6106,33960,51,51,0,51,0.00,0.30,0.10,0.10
2017-07-06 21:10:00,2,32850,51,0.45,2,2,0,2,23744,45983,5866,32482,51,52,0,51,0.10,0.75,0.22,0.45
2017-07-06 21:20:00,2,27568,52,1.28,2,2,0,2,15344,42210,7668,27112,51,52,0,52,0.25,3.45,0.90,0.92
2017-07-06 21:30:00,2,39492,57,1.24,2,2,0,2,23927,50000,9179,39348,52,61,4,61,0.50,2.05,0.56,1.20
2017-07-06 21:40:00,2,35595,60,1.28,2,2,0,2,17066,48974,11079,37888,52,61,3,61,0.60,3.10,0.71,1.23
2017-07-06 21:50:00,2,24916,61,2.70,2,2,0,2,15713,33581,5736,23781,61,61,0,61,1.70,4.55,0.77,2.73
2017-07-06 22:00:00,2,18386,61,3.17,2,2,0,2,14754,25617,3545,17700,61,61,0,61,1.65,5.70,1.07,2.83
2017-07-06 22:10:00,2,24756,61,2.00,2,2,0,2,14832,32987,6358,27423,61,61,0,61,0.60,4.25,1.20,1.58
2017-07-06 22:20:00,2,29561,61,2.04,2,2,0,2,20827,35149,4038,30232,61,61,0,61,0.65,3.95,0.92,1.95
2017-07-06 22:30:00,2,19236,61,1.83,2,2,0,2,13267,28060,5091,18200,61,61,0,61,0.85,3.25,0.92,1.48
2017-07-06 22:40:00,2,18533,61,0.80,2,2,0,2,12715,27710,4244,18442,61,61,0,61,0.10,1.40,0.42,0.60
2017-07-06 22:50:00,2,20485,61,0.70,2,2,0,2,15624,30591,4400,18728,61,61,0,61,0.10,1.50,0.42,0.65
2017-07-06 23:00:00,2,39798,37,0.07,2,2,0,2,24741,50000,9291,42040,0,61,24,51,0.00,0.30,0.12,0.00
2017-07-06 23:10:00,2,47015,0,0.00,2,2,0,2,38339,50000,4153,48952,0,0,0,0,0.00,0.00,0.00,0.00
2017-07-06 23:20:00,2,29113,52,0.18,2,2,0,2,19760,39655,6250,26604,0,61,18,61,0.00,0.55,0.17,0.12
2017-07-06 23:30:00,2,42885,22,0.02,2,2,0,2,24525,50000,9003,47818,0,61,28,0,0.00,0.10,0.03,0.00
2017-07-06 23:40:00,2,20476,40,0.09,2,2,0,2,11488,31293,5965,19000,0,61,26,51,0.00,0.30,0.11,0.03
2017-07-06 23:50:00,2,34548,33,0.01,2,2,0,2,20862,49576,11509,34842,0,51,22,41,0.00,0.05,0.02,0.00
